[[{"header":{"parameterUnit":"m.s-1","parameterCategory":2,"la1":30.2991,"la2":30.254,"lo1":-89.0895,"lo2":-89.0444,"dy":0.0017,"dx":0.0017,"nx":28,"ny":28,"refTime":"2024-05-12T03:00:00:Z","depth":"0","parameterNumber":2,"parameterNumberName":"U-component_of_CURRENTS"},"data":[0,0,0,0,0,0,0,0,0,0,0,0,0,0,0,0,0,0,0,0,0,0,0,0,0,0,0,0,0,0,0,0,0,0,0,0,0,0,0,0,0,0,0,0,0,0,0,0,0,0,0,0,0,0,0,0,0,0,0.3839,0.3839,0,0.388,0.3881,0.3881,0.3907,0.3908,0.3908,0.3909,0.4004,0.4006,0.4008,0,0,0,0,0,0,0,0,0,0,0,0,0,0.38,0.38,0.3838,0.3839,0.384,0.388,0.3881,0.3881,0.3907,0.3908,0.3908,0.3909,0.4004,0.4006,0.4009,0,0,0,0,0,0,0,0,0,0,0,0,0,0.3824,0.38,0.3838,0.3861,0.3863,0.388,0.3881,0.3881,0.3907,0.3908,0.3908,0.3909,0.4003,0.4006,0.4009,0.4015,0,0,0.4019,0.402,0,0,0,0,0,0,0,0,0.3822,0.3824,0.3857,0.3859,0.3862,0.3892,0.3902,0.3929,0.3907,0.3887,0.3909,0.3909,0.3974,0.3979,0.398,0.4019,0.4023,0.4019,0.4021,0.4022,0.4023,0,0,0,0,0,0,0,0.382,0.3823,0.3852,0.3857,0.3861,0.3875,0.3879,0.3907,0.3924,0.3889,0.3892,0.3901,0.3975,0.3977,0.3983,0.4025,0.4019,0.4022,0.4024,0.4025,0.404,0.4039,0,0,0,0,0,0,0.382,0.3821,0.385,0.3853,0.3847,0.3876,0.3879,0.3879,0.3923,0.3931,0.3901,0.3903,0.3971,0.3979,0.3986,0.4022,0.4022,0.4025,0.4027,0.4041,0.404,0.4038,0,0,0,0,0,0,0.3819,0.3822,0.3849,0.3842,0.3846,0.3876,0.3875,0.388,0.389,0.3932,0.394,0.3908,0.3972,0.3982,0.3993,0.4025,0.4027,0.403,0.4043,0.4041,0.4039,0.4077,0,0,0,0,0,0,0.3818,0.3821,0.3817,0.3841,0.3847,0.3868,0.3875,0.388,0.3896,0.3899,0.3941,0.395,0.3973,0.3988,0.3996,0.4029,0.4032,0.4045,0.4042,0.4039,0.4077,0.4076,0.4075,0,0,0,0,0,0.3816,0.3809,0.3816,0.382,0.3841,0.3868,0.3872,0.3893,0.3896,0.3903,0.3909,0.3949,0.3976,0.3989,0.4,0.4035,0.4046,0.4043,0.404,0.4078,0.4076,0.4075,0,0,0,0,0,0,0.378,0.3812,0.382,0.382,0.3847,0.3874,0.3884,0.3894,0.3903,0.3906,0.3934,0.3943,0.3972,0.3974,0.3987,0.402,0.4017,0.4015,0.4042,0.4041,0.404,0.411,0.4035,0,0,0,0,0,0.3772,0.3783,0.3813,0.3815,0.383,0.3855,0.3867,0.3884,0.3899,0.3905,0.3927,0.394,0.3963,0.3977,0.3997,0.4013,0.4057,0.4034,0.4033,0.4032,0.4089,0.417,0.4185,0.4027,0.4027,0.4027,0,0,0.3758,0.3779,0.3783,0.381,0.3832,0.3859,0.3864,0.3888,0.3914,0.3915,0.3941,0.3948,0.3964,0.3987,0.4,0.3996,0.4082,0.4028,0.4028,0.4087,0.4169,0.4186,0.42,0.4025,0.4025,0.4025,0,0,0.3748,0.3757,0.377,0.3797,0.3838,0.3859,0.3867,0.3896,0.3915,0.3928,0.3941,0.3963,0.3974,0.401,0.4025,0.4024,0.4078,0.4009,0.407,0.4146,0.4162,0.4177,0.4196,0.4213,0.4004,0.4004,0.4004,0,0.3733,0.3749,0.3777,0.3804,0.3831,0.3861,0.3886,0.3911,0.3936,0.3966,0.3939,0.399,0.4,0.4067,0.4063,0.4036,0.4066,0.4082,0.4153,0.4169,0.4185,0.4201,0.4219,0.4005,0.4005,0.4005,0.4005,0,0.3738,0.3758,0.3771,0.3819,0.3849,0.3875,0.3923,0.3954,0.3967,0.3996,0.4053,0.4054,0.4097,0.4084,0.4082,0.4184,0.4163,0.4153,0.4178,0.4205,0.4216,0.4235,0.4007,0.4007,0.4006,0.4006,0,0,0.3687,0.3761,0.3764,0.3796,0.386,0.3886,0.3947,0.4015,0.4067,0.4086,0.4154,0.4185,0.4203,0.4221,0.4218,0.4281,0.4378,0.4269,0.4272,0.4323,0.4521,0.4461,0.4475,0.4392,0.4396,0.44,0.4467,0,0.3684,0.3732,0.3773,0.3824,0.3856,0.3922,0.3978,0.4049,0.4097,0.4166,0.4214,0.4263,0.4249,0.4264,0.4336,0.4381,0.4439,0.436,0.4458,0.4461,0.4437,0.45,0.438,0.443,0.4486,0.4489,0.4491,0,0.3671,0.3711,0.3755,0.3847,0.3867,0.3902,0.4013,0.4068,0.4191,0.4236,0.4322,0.4354,0.4461,0.4423,0.4568,0.452,0.4546,0.4566,0.4568,0.4536,0.444,0.4419,0.4462,0.4355,0.452,0.4518,0.4515,0,0.3619,0.3697,0.3732,0.3759,0.3863,0.3904,0.3963,0.4083,0.4151,0.4287,0.4347,0.4469,0.4532,0.4613,0.4665,0.463,0.4809,0.4749,0.4717,0.4708,0.4645,0.4625,0.4642,0.4875,0.4874,0.4874,0.4874,0,0.3593,0.3621,0.3708,0.3725,0.3781,0.387,0.3944,0.4035,0.4172,0.4261,0.4375,0.4465,0.4596,0.4696,0.4721,0.4791,0.4856,0.4775,0.4755,0.4639,0.4619,0.4552,0.4491,0.4877,0.4876,0.4876,0.4875,0,0.3523,0.3579,0.3623,0.3723,0.3752,0.3787,0.3914,0.3975,0.4124,0.4246,0.4296,0.4502,0.4642,0.4736,0.4871,0.4857,0.4785,0.4913,0.4743,0.4704,0.4541,0.4484,0.434,0.4205,0.4885,0.4884,0.4883,0,0.3489,0.3504,0.359,0.3608,0.3644,0.3714,0.3762,0.3923,0.4001,0.4252,0.4307,0.4508,0.4637,0.4815,0.4857,0.491,0.4759,0.4792,0.4717,0.4563,0.4485,0.4278,0.4159,0.461,0.4608,0.4605,0.4604,0,0.3423,0.3451,0.3486,0.3521,0.3557,0.3609,0.3698,0.3765,0.3964,0.4076,0.4255,0.4387,0.4625,0.4672,0.4778,0.4786,0.4567,0.4746,0.4659,0.4359,0.4067,0.3915,0.449,0.4584,0.4586,0.4588,0.4589,0.4589,0.3362,0.336,0.3399,0.3418,0.3456,0.3487,0.3482,0.3607,0.3708,0.3859,0.4093,0.4231,0.4451,0.4608,0.4579,0.4492,0.4435,0.438,0.4345,0.4164,0.3977,0.4489,0.4516,0.4517,0.4518,0.4519,0.452,0,0.3266,0.3272,0.3293,0.3296,0.3273,0.3343,0.3413,0.3389,0.3429,0.3652,0.3782,0.4019,0.4107,0.4234,0.4286,0.4143,0.3926,0.4017,0.3725,0.3645,0.4191,0.4126,0.3983,0.3983,0.3983,0.3983,0.3983,0.3983,0.3215,0.3181,0.3183,0.3101,0.31,0.302,0.3023,0.3027,0.3136,0.3249,0.3388,0.3589,0.3913,0.4046,0.3962,0.3861,0.3548,0.3389,0.3333,0.377,0.38,0.3829,0.3755,0.3537,0.3536,0.2654,0.2648,0.2643]},{"header":{"parameterUnit":"m.s-1","parameterCategory":2,"la1":30.2991,"la2":30.254,"lo1":-89.0895,"lo2":-89.0444,"dy":0.0017,"dx":0.0017,"nx":28,"ny":28,"refTime":"2024-05-12T03:00:00:Z","depth":"0","parameterNumber":3,"parameterNumberName":"V-component_of_CURRENTS"},"data":[0,0,0,0,0,0,0,0,0,0,0,0,0,0,0,0,0,0,0,0,0,0,0,0,0,0,0,0,0,0,0,0,0,0,0,0,0,0,0,0,0,0,0,0,0,0,0,0,0,0,0,0,0,0,0,0,0,0,0.0106,0.0105,0,0.0049,0.0048,0.0047,0.0007,0.0007,0.0007,0.0006,-0.012,-0.0124,-0.0127,0,0,0,0,0,0,0,0,0,0,0,0,0,0.0109,0.011,0.0106,0.0105,0.0105,0.0049,0.0048,0.0047,0.0007,0.0007,0.0007,0.0006,-0.0119,-0.0123,-0.0127,0,0,0,0,0,0,0,0,0,0,0,0,0,0.0084,0.011,0.0106,0.008,0.0077,0.0049,0.0048,0.0047,0.0007,0.0007,0.0006,0.0006,-0.0118,-0.0123,-0.0128,-0.0155,0,0,-0.0143,-0.0145,0,0,0,0,0,0,0,0,0.0085,0.0083,0.0084,0.0082,0.0078,0.0037,0.0003,-0.0023,0.0007,0.0031,0.0006,0.0006,-0.0073,-0.0081,-0.0094,-0.0161,-0.0166,-0.0143,-0.0146,-0.0148,-0.015,0,0,0,0,0,0,0,0.0087,0.0085,0.0081,0.0084,0.008,0.0047,0.0044,-0.0003,-0.0022,0.0029,0.0026,0.0024,-0.0075,-0.0089,-0.0097,-0.0168,-0.0143,-0.0147,-0.015,-0.0152,-0.0229,-0.0228,0,0,0,0,0,0,0.0103,0.0087,0.0083,0.0079,0.0084,0.0048,0.0044,0.0048,-0.0021,-0.003,0.0024,0.0022,-0.0081,-0.0092,-0.0102,-0.0115,-0.0148,-0.0153,-0.0156,-0.023,-0.0229,-0.0228,0,0,0,0,0,0,0.0103,0.0103,0.0085,0.0083,0.0079,0.0049,0.0054,0.0047,0.0039,-0.0023,-0.0034,0.0023,-0.0081,-0.0095,-0.0121,-0.0121,-0.0155,-0.0159,-0.0231,-0.023,-0.0228,-0.0156,0,0,0,0,0,0,0.0104,0.0104,0.0113,0.0085,0.008,0.008,0.0054,0.0047,0.0038,0.0035,-0.0028,-0.004,-0.0082,-0.0113,-0.0126,-0.0129,-0.0163,-0.0232,-0.023,-0.0229,-0.016,-0.0152,-0.0146,0,0,0,0,0,0.0104,0.0121,0.0114,0.0113,0.0093,0.008,0.0075,0.005,0.0039,0.004,0.0008,-0.0038,-0.0112,-0.0116,-0.0131,-0.0136,-0.0233,-0.0231,-0.0229,-0.0163,-0.0154,-0.0146,0,0,0,0,0,0,0.0128,0.0118,0.0109,0.0122,0.0107,0.0075,0.0077,0.0058,0.0032,0.0031,-0.0028,-0.0042,-0.0065,-0.0104,-0.0107,-0.015,-0.018,-0.0181,-0.0124,-0.0117,-0.011,-0.0083,-0.0167,0,0,0,0,0,0.0138,0.0149,0.0129,0.014,0.0138,0.0108,0.01,0.0084,0.0059,0.0048,0.0005,-0.0036,-0.007,-0.0094,-0.013,-0.0157,-0.0188,-0.0167,-0.016,-0.0155,-0.0141,-0.0188,-0.0184,-0.0221,-0.0221,-0.0221,0,0,0.0151,0.0147,0.0152,0.0146,0.0133,0.0139,0.0103,0.01,0.0104,0.0036,0.0029,-0.0015,-0.0069,-0.0092,-0.0107,-0.0125,-0.0158,-0.0152,-0.0147,-0.0136,-0.0185,-0.0182,-0.0179,-0.022,-0.022,-0.022,0,0,0.0184,0.0179,0.02,0.0192,0.0182,0.0165,0.0169,0.0142,0.0132,0.0118,0.0075,0.0037,-0.0016,-0.0055,-0.0082,-0.0061,-0.0118,-0.0074,-0.0028,-0.0073,-0.007,-0.0068,-0.0092,-0.0093,-0.0075,-0.0075,-0.0075,0,0.0198,0.0225,0.0202,0.0218,0.0225,0.0184,0.0209,0.0189,0.0156,0.0154,0.0129,0.0059,0.0001,-0.0024,-0.0018,-0.0049,-0.007,-0.0056,-0.0064,-0.0063,-0.0063,-0.0088,-0.009,-0.0071,-0.0071,-0.0072,-0.0072,0,0.0246,0.0266,0.0279,0.029,0.0289,0.0304,0.0281,0.0276,0.0256,0.0231,0.0206,0.0132,0.0093,0.0061,0.0025,0.0003,-0.0011,-0.0048,-0.0085,-0.0055,-0.0083,-0.0086,-0.0066,-0.0067,-0.0068,-0.0069,0,0,0.0293,0.0311,0.0319,0.0345,0.0335,0.0347,0.0354,0.0355,0.0377,0.0315,0.0331,0.0246,0.0203,0.0172,0.011,0.0062,0.0035,0.0017,0.0013,-0.0005,-0.0042,-0.0048,-0.0053,-0.0002,-0.0003,-0.0003,-0.0059,0,0.0345,0.0402,0.0391,0.0447,0.048,0.0452,0.047,0.0459,0.0441,0.0441,0.0352,0.0335,0.0246,0.0231,0.0168,0.0079,0.0029,0.0056,-0.0069,-0.0072,-0.0082,-0.0057,-0.0011,-0.0056,-0.0063,-0.0063,-0.0064,0,0.0405,0.0439,0.0508,0.055,0.0563,0.0586,0.0625,0.0635,0.0608,0.0592,0.0543,0.0476,0.0401,0.032,0.0173,0.0199,0.009,0.0006,0.0001,-0.0031,-0.0085,-0.009,-0.0063,-0.0269,-0.007,-0.0069,-0.0069,0,0.0475,0.0525,0.0592,0.0605,0.0638,0.0671,0.0689,0.0686,0.0722,0.0691,0.0711,0.0596,0.0565,0.0407,0.0228,0.0204,0.0072,0.001,-0.0101,-0.0103,-0.01,-0.0101,-0.0286,-0.0101,-0.0101,-0.0101,-0.01,0,0.0545,0.0598,0.0636,0.0676,0.0765,0.0756,0.0844,0.0841,0.0861,0.0927,0.0801,0.0827,0.0586,0.0477,0.0285,0.0102,0.011,-0.0079,-0.0117,-0.0072,-0.0069,-0.0279,-0.0393,-0.0103,-0.0102,-0.0102,-0.0101,0,0.0612,0.0634,0.0717,0.0775,0.0804,0.0871,0.0955,0.1016,0.102,0.1105,0.1102,0.101,0.0875,0.0631,0.0388,0.0202,-0.0105,-0.0073,0.0008,-0.0019,-0.0322,-0.0431,-0.0639,-0.0728,-0.02,-0.0201,-0.0201,0,0.065,0.0703,0.08,0.0861,0.0896,0.099,0.1061,0.1094,0.1173,0.1232,0.1289,0.1184,0.1151,0.0796,0.044,0.0115,-0.0104,-0.0076,-0.0134,-0.0322,-0.0473,-0.0559,-0.0625,-0.0099,-0.0099,-0.0098,-0.0098,0,0.0726,0.0763,0.0832,0.096,0.1053,0.1164,0.1275,0.1366,0.1429,0.1516,0.1611,0.159,0.1264,0.096,0.0497,0.0254,-0.0202,-0.0079,-0.0302,-0.0426,-0.0502,-0.061,-0.0073,-0.0095,-0.0095,-0.0095,-0.0095,-0.0095,0.0784,0.0847,0.0943,0.1067,0.1179,0.1333,0.1444,0.1582,0.1745,0.1899,0.1863,0.1906,0.1449,0.0834,0.046,-0.017,-0.0201,-0.0365,-0.0484,-0.0556,-0.0642,-0.0086,-0.0139,-0.0139,-0.014,-0.014,-0.0141,0,0.0852,0.0925,0.1041,0.1192,0.1327,0.1377,0.1582,0.1715,0.1937,0.2096,0.2191,0.2048,0.1466,0.0857,0.0004,-0.0477,-0.0657,-0.0747,-0.0871,-0.0923,-0.0447,-0.0443,-0.0529,-0.0529,-0.0528,-0.0528,-0.0528,-0.0528,0.0889,0.1007,0.1067,0.1294,0.1405,0.16,0.1727,0.1941,0.2115,0.2346,0.2431,0.2445,0.2004,0.0442,-0.0642,-0.0902,-0.1224,-0.1297,-0.1488,-0.118,-0.1154,-0.1129,-0.1154,-0.1387,-0.1389,-0.1888,-0.1893,-0.1897]}],[{"header":{"parameterUnit":"m.s-1","parameterCategory":2,"la1":30.2991,"la2":30.254,"lo1":-89.0895,"lo2":-89.0444,"dy":0.0017,"dx":0.0017,"nx":28,"ny":28,"refTime":"2024-05-12T03:00:00:Z","depth":"2","parameterNumber":2,"parameterNumberName":"U-component_of_CURRENTS"},"data":[0,0,0,0,0,0,0,0,0,0,0,0,0,0,0,0,0,0,0,0,0,0,0,0,0,0,0,0,0,0,0,0,0,0,0,0,0,0,0,0,0,0,0,0,0,0,0,0,0,0,0,0,0,0,0,0,0,0,0.3394,0.3394,0,0.3417,0.3417,0.3417,0.3432,0.3433,0.3433,0.3434,0.3442,0.3442,0.3441,0,0,0,0,0,0,0,0,0,0,0,0,0,0.3356,0.3356,0.3394,0.3394,0.3395,0.3417,0.3417,0.3417,0.3432,0.3433,0.3433,0.3434,0.3442,0.3442,0.3441,0,0,0,0,0,0,0,0,0,0,0,0,0,0.3372,0.3357,0.3394,0.3408,0.341,0.3417,0.3417,0.3417,0.3432,0.3433,0.3434,0.3434,0.3442,0.3442,0.3441,0.3426,0,0,0.344,0.344,0,0,0,0,0,0,0,0,0.3371,0.3373,0.3405,0.3407,0.3409,0.3426,0.3407,0.3421,0.3432,0.342,0.3434,0.3434,0.3437,0.3437,0.3435,0.3427,0.3427,0.344,0.344,0.344,0.344,0,0,0,0,0,0,0,0.337,0.3372,0.3399,0.3406,0.3408,0.3411,0.3414,0.3409,0.3421,0.3421,0.3423,0.3431,0.3437,0.3435,0.3435,0.3427,0.344,0.344,0.344,0.344,0.3463,0.3464,0,0,0,0,0,0,0.3374,0.3371,0.3399,0.34,0.3395,0.3412,0.3415,0.3417,0.3422,0.3424,0.3431,0.3432,0.3435,0.3436,0.3436,0.3474,0.344,0.344,0.344,0.3463,0.3464,0.3464,0,0,0,0,0,0,0.3373,0.3376,0.3398,0.3389,0.3393,0.3412,0.3414,0.3417,0.343,0.343,0.3432,0.3444,0.3436,0.3436,0.3448,0.3473,0.344,0.3439,0.3462,0.3463,0.3464,0.3515,0,0,0,0,0,0,0.3371,0.3375,0.3379,0.3389,0.3394,0.3416,0.3414,0.3417,0.3435,0.3437,0.3441,0.3442,0.3436,0.3449,0.3448,0.3472,0.3439,0.3461,0.3462,0.3464,0.3512,0.3518,0.3523,0,0,0,0,0,0.337,0.3371,0.3378,0.3382,0.3397,0.3417,0.3419,0.3432,0.3436,0.3445,0.3449,0.3443,0.3458,0.3449,0.3448,0.3472,0.346,0.3462,0.3464,0.351,0.3517,0.3522,0,0,0,0,0,0,0.3346,0.3373,0.3382,0.3388,0.341,0.3421,0.3432,0.344,0.3449,0.3453,0.3448,0.3449,0.3474,0.3461,0.3451,0.3483,0.346,0.3461,0.3495,0.3502,0.3507,0.3548,0.3439,0,0,0,0,0,0.3345,0.336,0.3383,0.339,0.3404,0.342,0.343,0.3441,0.3452,0.3457,0.3459,0.3463,0.3477,0.348,0.3486,0.3494,0.3516,0.351,0.3515,0.352,0.3553,0.3603,0.3616,0.347,0.347,0.347,0,0,0.3337,0.3356,0.3363,0.3388,0.3405,0.3427,0.3427,0.345,0.3473,0.3456,0.348,0.3484,0.3485,0.3505,0.3514,0.3498,0.3569,0.3522,0.3526,0.3557,0.3606,0.3621,0.3634,0.3472,0.3471,0.3471,0,0,0.3333,0.3349,0.3364,0.3387,0.3423,0.3437,0.3449,0.347,0.3487,0.3505,0.351,0.3533,0.3529,0.3551,0.3558,0.3593,0.3599,0.3585,0.364,0.3688,0.3701,0.3713,0.3746,0.376,0.3582,0.3582,0.3582,0,0.3325,0.3344,0.3371,0.3395,0.3418,0.3446,0.3468,0.3491,0.3512,0.3538,0.352,0.3563,0.3559,0.3613,0.363,0.3609,0.3632,0.3615,0.3697,0.3709,0.3721,0.3752,0.3767,0.3585,0.3584,0.3584,0.3584,0,0.3333,0.3355,0.3368,0.3413,0.3441,0.3465,0.3507,0.3538,0.3555,0.3579,0.3633,0.3634,0.3668,0.3663,0.3659,0.3739,0.3729,0.3703,0.3686,0.3739,0.3767,0.3782,0.3588,0.3587,0.3587,0.3586,0,0,0.3291,0.3361,0.3364,0.3393,0.3453,0.3475,0.3533,0.3592,0.364,0.3663,0.3723,0.3752,0.377,0.3782,0.378,0.382,0.3909,0.3804,0.3805,0.3845,0.4016,0.3949,0.3958,0.39,0.3903,0.3906,0.3999,0,0.3289,0.3333,0.3373,0.342,0.3448,0.3508,0.3561,0.3625,0.3671,0.3736,0.3776,0.3824,0.3809,0.383,0.3877,0.391,0.3955,0.3887,0.3953,0.3955,0.3896,0.3976,0.3661,0.3714,0.4014,0.4016,0.4018,0,0.3276,0.3313,0.3355,0.3438,0.3457,0.3493,0.3594,0.3646,0.3756,0.3801,0.3876,0.3906,0.3997,0.3955,0.4066,0.4026,0.4043,0.4053,0.4056,0.3995,0.3917,0.3711,0.373,0.4044,0.4042,0.404,0.4038,0,0.3226,0.3298,0.3332,0.3357,0.3454,0.3495,0.3552,0.3662,0.3725,0.3851,0.3911,0.4009,0.4068,0.4119,0.416,0.4124,0.4267,0.4205,0.416,0.4154,0.3904,0.3871,0.429,0.429,0.429,0.4289,0.4289,0,0.3198,0.3225,0.3312,0.3328,0.3383,0.3467,0.3542,0.3625,0.3753,0.3834,0.3941,0.4019,0.4118,0.42,0.4212,0.4252,0.4312,0.4208,0.4191,0.3909,0.3877,0.4172,0.4157,0.4293,0.4292,0.4291,0.4291,0,0.313,0.3186,0.3228,0.3325,0.3356,0.3394,0.3522,0.3579,0.3723,0.3835,0.3884,0.4063,0.4177,0.4254,0.4347,0.4316,0.4348,0.4338,0.4003,0.3945,0.4187,0.4173,0.43,0.4299,0.4298,0.4297,0.4296,0,0.3096,0.3112,0.32,0.322,0.326,0.3334,0.3383,0.3538,0.361,0.3842,0.3888,0.4066,0.4155,0.429,0.4277,0.4303,0.4358,0.401,0.3885,0.4227,0.4197,0.4185,0.4173,0.3561,0.3554,0.3549,0.3544,0,0.3032,0.3064,0.3097,0.3139,0.3181,0.3233,0.3324,0.3383,0.3568,0.367,0.3815,0.3913,0.408,0.3985,0.4054,0.4012,0.3981,0.39,0.4357,0.3614,0.3539,0.3506,0.3517,0.3496,0.35,0.3504,0.3507,0.3509,0.2976,0.2976,0.3018,0.3042,0.3085,0.311,0.3108,0.3218,0.3301,0.3419,0.3615,0.3651,0.3736,0.3684,0.3586,0.3512,0.3778,0.3589,0.3602,0.3621,0.3527,0.3455,0.3377,0.3381,0.3384,0.3387,0.339,0,0.2884,0.2895,0.2918,0.2926,0.2905,0.2981,0.3039,0.3004,0.3019,0.3172,0.3255,0.3064,0.3045,0.3117,0.2949,0.2967,0.2889,0.2827,0.269,0.2745,0.2792,0.2648,0.2268,0.2264,0.226,0.2257,0,0,0.2837,0.2806,0.2807,0.2732,0.2741,0.2669,0.2665,0.2641,0.2694,0.267,0.2672,0.2915,0.3051,0.2615,0.2576,0.2389,0.2529,0.2291,0.3206,0.3101,0.3141,0.3266,0.3113,0,0,0,0,0]},{"header":{"parameterUnit":"m.s-1","parameterCategory":2,"la1":30.2991,"la2":30.254,"lo1":-89.0895,"lo2":-89.0444,"dy":0.0017,"dx":0.0017,"nx":28,"ny":28,"refTime":"2024-05-12T03:00:00:Z","depth":"2","parameterNumber":3,"parameterNumberName":"V-component_of_CURRENTS"},"data":[0,0,0,0,0,0,0,0,0,0,0,0,0,0,0,0,0,0,0,0,0,0,0,0,0,0,0,0,0,0,0,0,0,0,0,0,0,0,0,0,0,0,0,0,0,0,0,0,0,0,0,0,0,0,0,0,0,0,0.022,0.022,0,0.0174,0.0173,0.0173,0.014,0.014,0.014,0.014,0.0064,0.0062,0.0061,0,0,0,0,0,0,0,0,0,0,0,0,0,0.0221,0.0222,0.022,0.022,0.0219,0.0174,0.0173,0.0173,0.014,0.014,0.014,0.014,0.0065,0.0063,0.006,0,0,0,0,0,0,0,0,0,0,0,0,0,0.0201,0.0222,0.022,0.0199,0.0196,0.0174,0.0173,0.0172,0.014,0.014,0.014,0.014,0.0066,0.0063,0.006,0.0046,0,0,0.0051,0.005,0,0,0,0,0,0,0,0,0.0203,0.0201,0.0202,0.02,0.0198,0.0164,0.0146,0.0129,0.014,0.016,0.014,0.014,0.0096,0.0091,0.0081,0.0043,0.004,0.0051,0.0049,0.0048,0.0047,0,0,0,0,0,0,0,0.0204,0.0203,0.02,0.0202,0.0199,0.0171,0.0169,0.0142,0.0128,0.0158,0.0156,0.0153,0.0094,0.0084,0.0079,0.0038,0.0051,0.0049,0.0047,0.0046,-0.0013,-0.0013,0,0,0,0,0,0,0.0216,0.0205,0.0202,0.0199,0.0201,0.0172,0.0169,0.0174,0.0129,0.0122,0.0154,0.0152,0.0089,0.0082,0.0076,0.0073,0.0048,0.0046,0.0044,-0.0014,-0.0013,-0.0013,0,0,0,0,0,0,0.0217,0.0217,0.0204,0.0201,0.0198,0.0173,0.0178,0.0173,0.0166,0.0126,0.0119,0.0153,0.0088,0.008,0.0062,0.0069,0.0044,0.0042,-0.0014,-0.0014,-0.0013,0.0056,0,0,0,0,0,0,0.0217,0.0217,0.0225,0.0202,0.0199,0.0201,0.0178,0.0172,0.0165,0.0163,0.0122,0.0115,0.0087,0.0067,0.0059,0.0065,0.0039,-0.0014,-0.0014,-0.0013,0.0054,0.0059,0.0063,0,0,0,0,0,0.0217,0.0233,0.0226,0.0226,0.0211,0.0201,0.0197,0.0176,0.0165,0.0168,0.0142,0.0116,0.0063,0.0065,0.0056,0.0061,-0.0014,-0.0014,-0.0013,0.0052,0.0058,0.0063,0,0,0,0,0,0,0.0238,0.0231,0.0223,0.0235,0.0223,0.0197,0.0199,0.0182,0.0163,0.0161,0.0121,0.0112,0.0098,0.0069,0.0072,0.0043,0.0019,0.0017,0.0071,0.0076,0.0081,0.0106,0.0037,0,0,0,0,0,0.0247,0.0258,0.0241,0.0252,0.025,0.0225,0.0219,0.0204,0.0184,0.0176,0.0147,0.0115,0.0091,0.0077,0.005,0.0037,0.0006,0.0032,0.0036,0.0041,0.0054,0.0012,0.0014,-0.0012,-0.0012,-0.0012,0,0,0.0258,0.0256,0.0261,0.0257,0.0247,0.0254,0.0221,0.0218,0.0224,0.017,0.0169,0.0132,0.0091,0.0077,0.0068,0.0055,0.0031,0.0041,0.0045,0.0056,0.0012,0.0015,0.0017,-0.0012,-0.0012,-0.0012,0,0,0.0288,0.0285,0.0304,0.0299,0.029,0.0277,0.028,0.0257,0.0249,0.024,0.0202,0.0172,0.0136,0.0108,0.0089,0.0102,0.0058,0.0089,0.0133,0.0092,0.0094,0.0096,0.0059,0.0057,0.0091,0.0091,0.0091,0,0.0301,0.0327,0.0307,0.0323,0.0331,0.0294,0.0318,0.0302,0.0274,0.0273,0.025,0.0194,0.0152,0.0137,0.0139,0.0113,0.0086,0.0118,0.01,0.01,0.0101,0.0063,0.0059,0.0095,0.0094,0.0094,0.0093,0,0.0345,0.0365,0.0377,0.039,0.0391,0.0406,0.0387,0.0383,0.0365,0.0344,0.0325,0.0265,0.0233,0.0208,0.0178,0.0161,0.014,0.0112,0.009,0.0108,0.0066,0.0062,0.0099,0.0098,0.0097,0.0096,0,0,0.0386,0.0406,0.0413,0.0439,0.0433,0.0445,0.0455,0.0459,0.0478,0.0425,0.044,0.0373,0.0333,0.0309,0.0256,0.0215,0.0184,0.0173,0.0169,0.0146,0.0099,0.0079,0.0072,0.0154,0.0154,0.0154,0.0069,0,0.0432,0.0486,0.048,0.0535,0.0566,0.0543,0.0562,0.0554,0.0538,0.0537,0.0463,0.0449,0.0374,0.0361,0.0307,0.0221,0.0175,0.021,0.0077,0.0074,0.0061,0.0067,0.01,0.0027,0.0064,0.0063,0.0062,0,0.0487,0.0519,0.0585,0.0628,0.0641,0.0664,0.0701,0.0712,0.0688,0.0673,0.063,0.057,0.0503,0.0437,0.0294,0.0322,0.0221,0.0143,0.0138,0.0095,0.0046,0.0014,0.0017,0.0054,0.0055,0.0055,0.0056,0,0.0548,0.0597,0.0661,0.0674,0.0709,0.074,0.0759,0.0758,0.079,0.0761,0.0774,0.067,0.0638,0.0495,0.0326,0.0312,0.0169,0.0125,0.0009,0.0006,-0.0003,-0.0005,0.0024,0.0024,0.0024,0.0024,0.0024,0,0.061,0.0661,0.0699,0.0737,0.0821,0.0815,0.0896,0.0894,0.0911,0.0965,0.0854,0.0868,0.0653,0.0541,0.0368,0.0182,0.0195,0.0024,-0.0015,0.0022,0.0022,0.0015,0.0016,0.0021,0.0022,0.0022,0.0023,0,0.0669,0.0692,0.077,0.0827,0.0855,0.0917,0.0996,0.1049,0.105,0.1118,0.1115,0.102,0.0876,0.0651,0.0422,0.0255,0.0065,-0.0007,0.0052,0.0022,-0.0083,-0.0078,-0.0145,-0.0147,-0.0148,-0.0149,-0.015,0,0.0703,0.0752,0.0845,0.0901,0.0934,0.1022,0.1088,0.1119,0.1188,0.1222,0.1268,0.115,0.109,0.074,0.0421,0.0113,0.0067,-0.0063,-0.0093,-0.0068,-0.0099,-0.0093,-0.0087,-0.0083,-0.0083,-0.0083,-0.0083,0,0.0769,0.0804,0.0869,0.0987,0.1073,0.1176,0.1277,0.1354,0.1406,0.1465,0.1517,0.147,0.1143,0.083,0.04,0.0197,-0.0016,-0.0077,-0.0065,-0.004,-0.0015,-0.0044,-0.0039,-0.0085,-0.0084,-0.0084,-0.0084,-0.0084,0.0819,0.0876,0.0965,0.1078,0.1184,0.132,0.1416,0.1529,0.1658,0.175,0.1702,0.1637,0.128,0.0733,0.0358,-0.0034,-0.0012,-0.0152,-0.0149,-0.0147,-0.012,-0.0098,-0.0177,-0.0178,-0.0178,-0.0178,-0.0179,0,0.0877,0.0943,0.1048,0.1186,0.1307,0.1359,0.1537,0.1637,0.1801,0.1868,0.1902,0.1569,0.121,0.0791,0.0209,-0.0132,-0.0152,-0.0239,-0.0194,-0.0189,-0.0186,-0.016,-0.0229,-0.023,-0.0232,-0.0233,0,0,0.0908,0.1013,0.1065,0.1267,0.1369,0.1542,0.165,0.18,0.1896,0.1966,0.1926,0.184,0.1337,0.0907,0.0438,0.0095,0.0036,0.0037,0.0119,0.0234,0.0241,-0.0091,-0.004,0,0,0,0,0]}],[{"header":{"parameterUnit":"m.s-1","parameterCategory":2,"la1":30.2991,"la2":30.254,"lo1":-89.0895,"lo2":-89.0444,"dy":0.0017,"dx":0.0017,"nx":28,"ny":28,"refTime":"2024-05-12T03:00:00:Z","depth":"4","parameterNumber":2,"parameterNumberName":"U-component_of_CURRENTS"},"data":[0,0,0,0,0,0,0,0,0,0,0,0,0,0,0,0,0,0,0,0,0,0,0,0,0,0,0,0,0,0,0,0,0,0,0,0,0,0,0,0,0,0,0,0,0,0,0,0,0,0,0,0,0,0,0,0,0,0,0.229,0.2291,0,0.2349,0.235,0.235,0.242,0.2422,0.2423,0.2424,0.2469,0.2469,0.2469,0,0,0,0,0,0,0,0,0,0,0,0,0,0.2206,0.2207,0.229,0.2291,0.2292,0.2349,0.235,0.235,0.242,0.2422,0.2423,0.2425,0.2469,0.2469,0.2469,0,0,0,0,0,0,0,0,0,0,0,0,0,0.2249,0.2208,0.229,0.2336,0.2341,0.2349,0.235,0.235,0.242,0.2422,0.2424,0.2426,0.2469,0.2469,0.2469,0.2427,0,0,0.2469,0.2469,0,0,0,0,0,0,0,0,0.2246,0.2251,0.2328,0.2333,0.2339,0.2382,0.2337,0.2377,0.2419,0.2386,0.2424,0.2427,0.2439,0.2442,0.2444,0.243,0.2431,0.2469,0.2469,0.2469,0.2469,0,0,0,0,0,0,0,0.2243,0.2249,0.231,0.2329,0.2336,0.2344,0.2352,0.2345,0.2398,0.2389,0.2395,0.2406,0.2442,0.2444,0.2446,0.2432,0.2469,0.2469,0.2469,0.2469,0.2557,0.256,0,0,0,0,0,0,0.2242,0.2246,0.2308,0.2312,0.23,0.2344,0.2353,0.2364,0.2399,0.2407,0.2405,0.241,0.2443,0.2446,0.2448,0.2539,0.2469,0.2469,0.2469,0.2555,0.2558,0.2561,0,0,0,0,0,0,0.224,0.2247,0.2306,0.2283,0.2292,0.2344,0.2355,0.2364,0.2418,0.2411,0.2419,0.2456,0.2445,0.2448,0.2499,0.2536,0.2469,0.2469,0.2552,0.2556,0.2559,0.2633,0,0,0,0,0,0,0.2237,0.2245,0.2273,0.2283,0.2293,0.2344,0.2353,0.2363,0.242,0.2428,0.2456,0.246,0.2447,0.2499,0.2498,0.2535,0.2468,0.2549,0.2554,0.2558,0.2628,0.2639,0.2648,0,0,0,0,0,0.2234,0.2253,0.2274,0.2283,0.2323,0.2345,0.2352,0.2392,0.2421,0.2448,0.2482,0.2462,0.2528,0.2501,0.2499,0.2537,0.2547,0.2553,0.2558,0.2623,0.2637,0.2648,0,0,0,0,0,0,0.2228,0.2263,0.2286,0.2316,0.2348,0.2359,0.2395,0.2418,0.2464,0.2489,0.2485,0.249,0.2551,0.2537,0.2507,0.258,0.2537,0.2542,0.2587,0.2599,0.2609,0.2623,0.2468,0,0,0,0,0,0.2239,0.2273,0.2298,0.233,0.235,0.2382,0.2406,0.2433,0.2464,0.2489,0.2509,0.2537,0.2561,0.2578,0.2592,0.2622,0.2624,0.265,0.266,0.2669,0.2683,0.2721,0.2735,0.2579,0.2579,0.2578,0,0,0.2246,0.2272,0.2293,0.2334,0.2364,0.2394,0.2403,0.2453,0.2491,0.2483,0.2555,0.2575,0.2581,0.2626,0.2651,0.2624,0.2719,0.2676,0.2683,0.2692,0.2728,0.2743,0.2756,0.2582,0.2582,0.2581,0,0,0.226,0.2304,0.2334,0.2364,0.2419,0.2435,0.2462,0.2502,0.2543,0.2597,0.2614,0.2665,0.269,0.2709,0.2717,0.2793,0.2776,0.2804,0.286,0.2897,0.291,0.2921,0.2953,0.2967,0.2804,0.2804,0.2804,0,0.2274,0.2308,0.2346,0.2379,0.2413,0.246,0.2495,0.2533,0.259,0.2627,0.2637,0.272,0.2728,0.2786,0.2823,0.2815,0.2836,0.2807,0.2909,0.292,0.2931,0.2961,0.2975,0.2808,0.2808,0.2807,0.2807,0,0.2292,0.234,0.2363,0.2423,0.2463,0.2504,0.2555,0.2614,0.2668,0.27,0.2791,0.2812,0.2864,0.2876,0.2873,0.2957,0.2949,0.2919,0.2872,0.2951,0.2978,0.2991,0.2814,0.2813,0.2811,0.281,0,0,0.2262,0.2358,0.237,0.2412,0.2494,0.2521,0.2603,0.2674,0.2739,0.2802,0.2878,0.2938,0.2972,0.2986,0.2998,0.3031,0.3124,0.3019,0.3019,0.3043,0.3219,0.3014,0.3009,0.3117,0.312,0.3122,0.3211,0,0.2269,0.2334,0.2384,0.2459,0.2496,0.2575,0.2643,0.2723,0.2794,0.2878,0.2932,0.3008,0.3006,0.3051,0.3091,0.3123,0.3162,0.3103,0.3147,0.3148,0.2949,0.3017,0.313,0.3221,0.3224,0.3226,0.3227,0,0.2257,0.2309,0.238,0.2487,0.2514,0.2574,0.27,0.2766,0.289,0.2953,0.3044,0.309,0.3187,0.3157,0.326,0.3229,0.3243,0.3249,0.3252,0.3043,0.2967,0.3126,0.3251,0.3249,0.3247,0.3245,0.3244,0,0.2197,0.2302,0.2365,0.24,0.2524,0.2592,0.2671,0.2797,0.2869,0.3017,0.3086,0.3191,0.3266,0.3307,0.3349,0.3322,0.3434,0.3385,0.3212,0.3199,0.3323,0.331,0.3447,0.3447,0.3447,0.3447,0.3446,0,0.2155,0.2211,0.2353,0.2384,0.2474,0.2578,0.2687,0.2784,0.2925,0.3002,0.3132,0.3196,0.3313,0.3383,0.3391,0.3347,0.3475,0.3236,0.3208,0.3354,0.3343,0.3332,0.3318,0.345,0.3449,0.3448,0.3448,0,0.2068,0.2162,0.2242,0.2393,0.2447,0.2515,0.2687,0.2752,0.2915,0.3023,0.3081,0.3245,0.3328,0.3408,0.3481,0.3383,0.3367,0.3317,0.3495,0.3473,0.3099,0.3088,0.3122,0.3115,0.311,0.3105,0.3101,0,0.2023,0.206,0.2229,0.228,0.2357,0.2478,0.255,0.2726,0.2794,0.3013,0.3042,0.32,0.328,0.3224,0.3324,0.3325,0.328,0.3254,0.3147,0.3097,0.3067,0.3064,0.3061,0.3093,0.3091,0.309,0.3088,0,0.1934,0.2019,0.2087,0.2193,0.2284,0.2363,0.2487,0.2519,0.2708,0.2882,0.2921,0.2956,0.3043,0.3083,0.3118,0.3108,0.3256,0.3195,0.3205,0.3104,0.3062,0.3037,0.304,0.3069,0.3072,0.3074,0.3075,0,0.1877,0.19,0.2005,0.2077,0.218,0.2211,0.2296,0.2365,0.2451,0.2683,0.2689,0.2848,0.3005,0.2973,0.3001,0.2982,0.2921,0.2806,0.2835,0.2857,0.2726,0.2631,0.249,0,0,0,0,0,0.1802,0.181,0.1874,0.1935,0.2028,0.2088,0.2231,0.2319,0.25,0.2453,0.2561,0.2619,0.2651,0.274,0.2664,0.2895,0.2946,0.2795,0.2832,0.2964,0.2986,0.2855,0,0,0,0,0,0,0.1749,0.1806,0.1822,0.1798,0.1812,0.1891,0.1974,0.2102,0.2088,0.228,0.2312,0.2453,0.2531,0.266,0.261,0.2637,0.2603,0.29,0.2893,0.2951,0.2971,0.2989,0.2862,0,0,0,0,0]},{"header":{"parameterUnit":"m.s-1","parameterCategory":2,"la1":30.2991,"la2":30.254,"lo1":-89.0895,"lo2":-89.0444,"dy":0.0017,"dx":0.0017,"nx":28,"ny":28,"refTime":"2024-05-12T03:00:00:Z","depth":"4","parameterNumber":3,"parameterNumberName":"V-component_of_CURRENTS"},"data":[0,0,0,0,0,0,0,0,0,0,0,0,0,0,0,0,0,0,0,0,0,0,0,0,0,0,0,0,0,0,0,0,0,0,0,0,0,0,0,0,0,0,0,0,0,0,0,0,0,0,0,0,0,0,0,0,0,0,0.0207,0.0207,0,0.018,0.018,0.018,0.0163,0.0162,0.0162,0.0162,0.0119,0.0118,0.0117,0,0,0,0,0,0,0,0,0,0,0,0,0,0.0203,0.0204,0.0207,0.0207,0.0207,0.018,0.018,0.0179,0.0163,0.0162,0.0162,0.0162,0.0119,0.0118,0.0116,0,0,0,0,0,0,0,0,0,0,0,0,0,0.0193,0.0204,0.0207,0.0196,0.0194,0.018,0.018,0.0179,0.0163,0.0162,0.0162,0.0162,0.012,0.0118,0.0116,0.0106,0,0,0.0111,0.011,0,0,0,0,0,0,0,0,0.0193,0.0193,0.0198,0.0196,0.0195,0.0175,0.0162,0.0154,0.0163,0.0174,0.0162,0.0162,0.0137,0.0134,0.0128,0.0104,0.0103,0.0111,0.011,0.0109,0.0109,0,0,0,0,0,0,0,0.0194,0.0194,0.0196,0.0197,0.0196,0.0178,0.0177,0.0161,0.0155,0.0173,0.0172,0.017,0.0136,0.0129,0.0127,0.0102,0.0111,0.0109,0.0108,0.0108,0.0069,0.0069,0,0,0,0,0,0,0.0201,0.0195,0.0197,0.0195,0.0195,0.0178,0.0177,0.0181,0.0155,0.0152,0.017,0.0169,0.0132,0.0129,0.0125,0.013,0.0109,0.0108,0.0107,0.0069,0.0069,0.0069,0,0,0,0,0,0,0.0202,0.0202,0.0198,0.0194,0.0193,0.0179,0.0183,0.0181,0.0179,0.0154,0.0149,0.0172,0.0132,0.0127,0.0118,0.0128,0.0107,0.0105,0.0069,0.0069,0.0069,0.0129,0,0,0,0,0,0,0.0202,0.0202,0.0211,0.0195,0.0193,0.0198,0.0183,0.018,0.0178,0.0177,0.0154,0.015,0.0132,0.0121,0.0117,0.0125,0.0104,0.0069,0.0069,0.0069,0.0127,0.0131,0.0134,0,0,0,0,0,0.0202,0.0215,0.0211,0.0212,0.0204,0.0199,0.0196,0.0185,0.0179,0.0183,0.0167,0.0151,0.0118,0.012,0.0115,0.0123,0.0069,0.0069,0.0069,0.0125,0.013,0.0134,0,0,0,0,0,0,0.0217,0.0214,0.021,0.0221,0.0214,0.0196,0.0202,0.019,0.018,0.0181,0.0154,0.0149,0.0143,0.0122,0.0126,0.0109,0.0089,0.0088,0.0133,0.0138,0.0141,0.016,0.0102,0,0,0,0,0,0.0225,0.0235,0.0224,0.0234,0.0234,0.0218,0.0216,0.0207,0.0195,0.0191,0.0173,0.0153,0.0138,0.0131,0.0113,0.0107,0.0078,0.0106,0.0109,0.0113,0.0123,0.0084,0.0086,0.0069,0.0069,0.0069,0,0,0.0234,0.0233,0.024,0.0239,0.0234,0.0241,0.0217,0.0218,0.0226,0.0187,0.0193,0.0167,0.0138,0.0133,0.0128,0.0119,0.01,0.0113,0.0116,0.0125,0.0085,0.0086,0.0088,0.0069,0.0069,0.0069,0,0,0.0258,0.0258,0.0275,0.0273,0.027,0.0261,0.0265,0.0251,0.0248,0.0246,0.0219,0.02,0.0179,0.0159,0.0147,0.0159,0.0121,0.0149,0.0186,0.0148,0.015,0.0151,0.0111,0.0107,0.0152,0.0152,0.0152,0,0.0268,0.029,0.0277,0.0291,0.03,0.0275,0.0296,0.0288,0.0271,0.0273,0.0258,0.022,0.0193,0.0185,0.0188,0.0169,0.014,0.0175,0.0155,0.0155,0.0155,0.0113,0.0109,0.0155,0.0155,0.0154,0.0154,0,0.0302,0.0321,0.0331,0.0345,0.035,0.0364,0.0354,0.0355,0.0346,0.0332,0.0322,0.028,0.026,0.0242,0.0221,0.0208,0.0185,0.0165,0.0148,0.016,0.0115,0.011,0.0159,0.0158,0.0157,0.0156,0,0,0.0327,0.0352,0.0358,0.0382,0.0384,0.0396,0.0409,0.0417,0.0435,0.04,0.0413,0.037,0.034,0.0324,0.0285,0.025,0.0217,0.0214,0.021,0.0182,0.0132,0.0117,0.0109,0.0194,0.0194,0.0193,0.01,0,0.0362,0.0408,0.0409,0.0458,0.0484,0.0474,0.0494,0.0494,0.0486,0.0487,0.0434,0.0429,0.0374,0.0367,0.0322,0.0249,0.0206,0.0244,0.0117,0.0113,0.0105,0.0103,0.0192,0.0095,0.0094,0.0093,0.0092,0,0.04,0.0429,0.0486,0.053,0.0542,0.0568,0.0605,0.0619,0.0605,0.0595,0.0565,0.0521,0.0469,0.0421,0.0296,0.0323,0.0236,0.017,0.0164,0.0129,0.0089,0.0079,0.0082,0.0083,0.0083,0.0084,0.0085,0,0.0437,0.0486,0.0542,0.0556,0.0595,0.0627,0.0651,0.0656,0.0686,0.0668,0.0678,0.0597,0.0571,0.045,0.0309,0.0304,0.0166,0.0137,0.0037,0.0034,0.005,0.005,0.0046,0.0046,0.0046,0.0047,0.0047,0,0.0477,0.0522,0.0571,0.0603,0.0678,0.0684,0.0757,0.0762,0.0781,0.082,0.0743,0.0744,0.0578,0.0478,0.0335,0.0172,0.018,0.0046,0.0012,0.0076,0.008,0.0046,0.0047,0.0043,0.0044,0.0045,0.0045,0,0.0507,0.0537,0.0607,0.067,0.0701,0.0756,0.0838,0.0882,0.0891,0.0938,0.0938,0.0856,0.0723,0.0544,0.0347,0.0219,0.0057,-0.0005,0.0081,0.0052,-0.0059,-0.0053,-0.0126,-0.0127,-0.0128,-0.0129,-0.013,0,0.0524,0.0566,0.0663,0.0715,0.0753,0.0837,0.0897,0.0936,0.0987,0.1006,0.1031,0.0927,0.0843,0.0558,0.0358,0.0079,0.0034,-0.0057,-0.0065,-0.0049,-0.0075,-0.0068,-0.0062,-0.0131,-0.0131,-0.0132,-0.0132,0,0.0557,0.0598,0.0656,0.0766,0.0848,0.0939,0.1029,0.1073,0.1119,0.1129,0.1104,0.0957,0.0804,0.0567,0.035,0.0148,-0.0002,-0.0069,-0.0069,-0.0077,-0.0057,-0.008,-0.0073,-0.0136,-0.0135,-0.0135,-0.0135,0,0.0584,0.0629,0.0712,0.0808,0.0916,0.1015,0.1057,0.1116,0.1165,0.118,0.1168,0.0999,0.0903,0.0603,0.0405,0.0203,0.0142,0.0064,0.0056,0.0058,0.0132,0.0186,0.0157,0,0,0,0,0,0.0604,0.0656,0.0745,0.0853,0.0961,0.1028,0.1136,0.1168,0.1215,0.1206,0.119,0.1045,0.0754,0.0634,0.0428,0.0366,0.0096,0.0115,0.0,-0.0156,-0.0152,-0.0098,0,0,0,0,0,0,0.0616,0.0698,0.0742,0.0878,0.0956,0.1079,0.1152,0.1181,0.1178,0.1189,0.1042,0.0978,0.0698,0.087,0.0419,0.0359,0.0253,-0.0014,-0.0019,-0.0159,-0.0155,-0.0151,-0.0094,0,0,0,0,0]}]]